Home   Weather   Kingstown   Past weeks
Flag for Saint Vincent and Grenadines

Past Weather in Kingstown, Saint Vincent and Grenadines — Yesterday and Last 2 Weeks

Now
82 °F

Partly cloudy.


Feels Like: 91 °F
Forecast: 85 / 81 °F
Wind: 22 mph from East

Location: Hewanorra International Airport

Current Time: Jun 17, 2019 at 11:04:59 pm

Latest Report: Jun 17, 2019 at 10:00 pm


Visibility: N/A

Pressure: 30.04 "Hg

Humidity: 84%

Dew Point: 77 °F

Location of KingstownLocation

Past Weather in Kingstown — Graph

°F

Kingstown Temperature Yesterday

Maximum temperature yesterday: 86 °F (at 12:00 pm)
Minimum temperature yesterday: 82 °F (at 12:00 am)
Average temperature yesterday: 83 °F

High & Low Weather Summary for the Past Weeks

 TemperatureHumidityPressure
High88 °F (Jun 3, 11:00 am)100% (Jun 12, 10:00 am)30.07 "Hg (Jun 12, 10:00 am)
Low75 °F (Jun 12, 11:00 am)66% (Jun 5, 2:00 pm)29.92 "Hg (Jun 6, 4:00 pm)
Average83 °F79%29.99 "Hg
* Reported Jun 2 10:00 pm — Jun 17 10:00 pm, Kingstown. Weather by CustomWeather, © 2019

Note: Actual official high and low records may vary slightly from our data, if they occured in-between our weather recording intervals... More about our weather records

Advertising

Kingstown Weather History for the Previous 24 Hours

Scroll right to see more
 ConditionsComfort  
Time TempWeatherWind HumidityBarometerVisibility
10:00 pm
Mon, Jun 17
82 °FPartly cloudy.22 mph84%30.04 "HgN/A
9:00 pm82 °FPartly cloudy.17 mph79%30.04 "HgN/A
8:00 pm82 °FPassing clouds.23 mph79%30.04 "HgN/A
7:00 pm82 °FPassing clouds.21 mph84%30.01 "HgN/A
6:00 pm82 °FPartly sunny.21 mph84%30.01 "HgN/A
5:00 pm84 °FPassing clouds.18 mph79%30.01 "HgN/A
4:00 pm84 °FPassing clouds.24 mph79%29.98 "HgN/A
1:00 pm86 °FPassing clouds.22 mph79%30.04 "HgN/A
12:00 pm86 °FScattered clouds.22 mph79%30.04 "HgN/A
11:00 am84 °FWarm.N/A84%30.07 "HgN/A
10:00 am84 °FPassing clouds.21 mph84%30.07 "HgN/A
9:00 am82 °FPassing clouds.22 mph84%30.04 "HgN/A
8:00 am82 °FPassing clouds.23 mph84%30.04 "HgN/A
7:00 am81 °FRain showers. Scattered clouds.23 mph89%30.01 "Hg4 mi
6:00 am82 °FLots of rain. Scattered clouds.21 mph84%29.98 "Hg1 mi
5:00 am81 °FSprinkles. Partly cloudy.23 mph89%29.98 "Hg3 mi
4:00 am82 °FScattered showers. Passing clouds.23 mph84%29.95 "Hg3 mi
3:00 am82 °FScattered showers. Partly cloudy.20 mph84%29.95 "Hg4 mi
2:00 am82 °FPassing clouds.21 mph84%29.98 "HgN/A
1:00 am82 °FPartly cloudy.21 mph84%30.01 "HgN/A
12:00 am82 °FPartly cloudy.23 mph84%30.01 "HgN/A
11:00 pm
Sun, Jun 16
82 °FPassing clouds.25 mph79%30.01 "HgN/A
Weather by CustomWeather, © 2019

See weather overview